This is the latest recevied weather packets stored in our database for station/object N4CRH-13. If no packets are shown the sender has not sent any weather packets the latest 10 day(s).
| Time | Temp. | Humidity | Pressure | Rain* | Wind** | Luminosity | Snow |
|---|---|---|---|---|---|---|---|
| 1777594728 | 1.11° C | 98% | 1297.6 hPa | 1.27 mm | - | 12 W/m² | - |
| 1777594424 | 1.11° C | 98% | 1297.5 hPa | 0 mm | - | 17 W/m² | - |
| 1777594120 | 1.11° C | 98% | 1297.5 hPa | 0 mm | - | 28 W/m² | - |
| 1777593816 | 1.11° C | 98% | 1297.6 hPa | 0 mm | - | 24 W/m² | - |
| 1777593513 | 1.11° C | 98% | 1297.5 hPa | 0 mm | - | 22 W/m² | - |
| 1777593207 | 1.11° C | 98% | 1297.6 hPa | 0 mm | - | 21 W/m² | - |
| 1777592901 | 1.11° C | 98% | 1297.6 hPa | 0 mm | - | 17 W/m² | - |
| 1777592597 | 1.11° C | 98% | 1297.3 hPa | 0 mm | - | 30 W/m² | - |
| 1777592293 | 1.11° C | 98% | 1297.3 hPa | 0 mm | - | 35 W/m² | - |
| 1777591988 | 1.11° C | 98% | 1297.3 hPa | 1.78 mm | - | 45 W/m² | - |
| 1777591684 | 1.11° C | 98% | 1297.5 hPa | 1.78 mm | - | 50 W/m² | - |
| 1777591380 | 1.11° C | 98% | 1297.4 hPa | 0 mm | - | 64 W/m² | - |
| 1777591076 | 1.11° C | 98% | 1297.4 hPa | 0 mm | - | 66 W/m² | - |
| 1777590772 | 1.11° C | 98% | 1297.4 hPa | 0 mm | - | 68 W/m² | - |
| 1777590468 | 1.11° C | 98% | 1297.5 hPa | 0 mm | - | 98 W/m² | - |
| 1777590165 | 1.67° C | 98% | 1297.3 hPa | 0 mm | - | 90 W/m² | - |
| 1777589861 | 1.67° C | 98% | 1297.3 hPa | 0 mm | - | 77 W/m² | - |
| 1777589557 | 1.11° C | 98% | 1297.4 hPa | 0 mm | - | 52 W/m² | - |
| 1777589255 | 1.11° C | 98% | 1297.1 hPa | 0 mm | - | 77 W/m² | - |
| 1777588953 | 1.67° C | 98% | 1297.5 hPa | 1.78 mm | - | 93 W/m² | - |
| 1777588648 | 1.11° C | 98% | 1297.5 hPa | 1.78 mm | - | 95 W/m² | - |
| 1777588344 | 1.11° C | 98% | 1297.3 hPa | 0 mm | - | 76 W/m² | - |
| 1777588040 | 1.11° C | 98% | 1297.3 hPa | 0 mm | - | 68 W/m² | - |
| 1777587736 | 1.11° C | 98% | 1297.3 hPa | 0 mm | - | 64 W/m² | - |
| 1777587429 | 1.11° C | 98% | 1297.5 hPa | 0 mm | - | 74 W/m² | - |
* Rain latest hour (hover to see other rain measurements)
** Current wind speed in m/s (hover to see current wind gust speed)